Location: Unspecified
(0.0000°N, 0.0000°E)
Time: 16:45:30
(UTC+00:00)

AD-A Canister/Altair 2 - Pass Details

Date: 01 May 2025
Orbit: 593 x 2295 km, 78.6° (Epoch: 12 May)

Event Time Altitude Azimuth Distance (km) Brightness Sun altitude
Rises 21:33:33 0° 225° (SW) 5,885 11.7 -51.4°
Reaches altitude 10° 21:39:56 10° 246° (WSW) 4,830 11.3 -52.8°
Maximum altitude 21:45:31 14° 273° (W) 4,360 11.2 -54.1°
Drops below altitude 10° 21:50:48 10° 300° (WNW) 4,475 11.3 -55.2°
Sets 21:56:24 0° 323° (NW) 5,160 11.7 -56.5°
